[[{"header":{"parameterUnit":"m.s-1","parameterCategory":1,"la1":30.2991,"la2":30.254,"lo1":-89.0895,"lo2":-89.0444,"dy":0.0017,"dx":0.0017,"nx":28,"ny":28,"refTime":"2025-12-30T03:00:00:Z","depth":0,"parameterNumber":2,"parameterNumberName":"U-component_of_WINDS"},"data":[0,0,0,0,0,0,0,0,0,0,0,0,0,0,0,0,0,0,0,0,0,0,0,0,0,0,0,0,0,0,0,0,0,0,0,0,0,0,0,0,0,0,0,0,0,0,0,0,0,0,0,0,0,0,0,0,0,0,1.8234,1.8234,0,1.825,1.825,1.825,1.8244,1.8244,1.8243,1.8243,1.8259,1.8259,1.826,0,0,0,0,0,0,0,0,0,0,0,0,0,1.82,1.82,1.8234,1.8234,1.8234,1.825,1.825,1.825,1.8244,1.8244,1.8243,1.8243,1.8259,1.8259,1.826,0,0,0,0,0,0,0,0,0,0,0,0,0,1.8215,1.8201,1.8234,1.8233,1.8233,1.825,1.825,1.825,1.8244,1.8244,1.8243,1.8243,1.8258,1.8259,1.826,1.8278,0,0,1.8264,1.8264,0,0,0,0,0,0,0,0,1.8214,1.8216,1.8233,1.8233,1.8234,1.8245,1.8244,1.826,1.8244,1.824,1.8243,1.8243,1.8254,1.8256,1.826,1.8279,1.828,1.8264,1.8265,1.8265,1.8265,0,0,0,0,0,0,0,1.8213,1.8216,1.824,1.8234,1.8234,1.8233,1.8234,1.8247,1.825,1.8241,1.824,1.8242,1.8254,1.8259,1.826,1.828,1.8264,1.8265,1.8266,1.8266,1.8316,1.8316,0,0,0,0,0,0,1.8212,1.8215,1.824,1.8241,1.8222,1.8234,1.8235,1.8242,1.825,1.8251,1.8243,1.8242,1.8257,1.8259,1.8261,1.8283,1.8265,1.8266,1.8267,1.8315,1.8316,1.8317,0,0,0,0,0,0,1.8211,1.8214,1.8239,1.8228,1.8231,1.8235,1.8242,1.8242,1.8247,1.8252,1.8252,1.8246,1.8257,1.8259,1.8274,1.8283,1.8267,1.8268,1.8314,1.8315,1.8316,1.8327,0,0,0,0,0,0,1.821,1.8214,1.822,1.8228,1.8231,1.8252,1.8242,1.8243,1.8249,1.8248,1.8255,1.8256,1.8257,1.8273,1.8275,1.8284,1.8269,1.8314,1.8315,1.8316,1.8325,1.8328,1.833,0,0,0,0,0,1.8209,1.8222,1.8221,1.8224,1.8239,1.8252,1.8255,1.8255,1.8249,1.8256,1.826,1.8256,1.8282,1.8274,1.8277,1.8287,1.8313,1.8314,1.8316,1.8324,1.8327,1.833,0,0,0,0,0,0,1.8215,1.8223,1.8221,1.8237,1.8244,1.8251,1.826,1.8258,1.8266,1.8265,1.8266,1.8267,1.8283,1.8287,1.8278,1.8305,1.8297,1.8299,1.8302,1.8305,1.8307,1.8306,1.827,0,0,0,0,0,1.8218,1.8228,1.8235,1.8248,1.8252,1.8255,1.8261,1.8261,1.8268,1.8271,1.8276,1.8283,1.8293,1.8299,1.8309,1.8326,1.8328,1.8335,1.8337,1.8339,1.834,1.8351,1.8354,1.8321,1.8321,1.8321,0,0,1.8224,1.823,1.8236,1.8249,1.8255,1.8265,1.8258,1.8269,1.8277,1.8273,1.8287,1.8291,1.8299,1.8316,1.8324,1.832,1.835,1.8341,1.8342,1.8342,1.8353,1.8356,1.8359,1.8322,1.8322,1.8322,0,0,1.8242,1.8247,1.8259,1.8265,1.8274,1.8277,1.828,1.8288,1.829,1.8305,1.8303,1.8313,1.8329,1.8336,1.8341,1.8364,1.8361,1.8367,1.8378,1.8388,1.8391,1.8393,1.8401,1.8404,1.8368,1.8368,1.8368,0,1.8248,1.8264,1.8266,1.8277,1.8284,1.8282,1.8294,1.83,1.8312,1.8316,1.8311,1.8334,1.8339,1.8358,1.8364,1.8368,1.8372,1.8365,1.839,1.8393,1.8395,1.8403,1.8406,1.8369,1.8369,1.8369,1.8369,0,1.8272,1.8283,1.8292,1.8304,1.8312,1.8324,1.8328,1.8335,1.8335,1.8339,1.8355,1.8362,1.8373,1.8378,1.8377,1.8397,1.8394,1.839,1.8381,1.8399,1.8406,1.8409,1.837,1.837,1.837,1.8369,0,0,1.8291,1.8306,1.8309,1.8315,1.8325,1.8334,1.8347,1.8359,1.8365,1.8374,1.8385,1.8401,1.8398,1.8404,1.8405,1.8414,1.8432,1.8409,1.8409,1.8413,1.8455,1.8458,1.8461,1.8431,1.8431,1.8432,1.8454,0,1.8309,1.8332,1.8335,1.8355,1.8366,1.8365,1.8377,1.8385,1.8389,1.8399,1.8404,1.8415,1.841,1.8414,1.8423,1.8428,1.844,1.8426,1.8441,1.8442,1.8439,1.8465,1.8467,1.8488,1.8457,1.8458,1.8458,0,1.8333,1.8343,1.8364,1.8375,1.838,1.839,1.8402,1.8411,1.8421,1.8424,1.8432,1.8432,1.8446,1.8438,1.8458,1.8448,1.8455,1.8459,1.8459,1.846,1.845,1.8466,1.8494,1.8497,1.8463,1.8462,1.8462,0,1.8345,1.8364,1.8379,1.8385,1.8397,1.8405,1.841,1.842,1.8427,1.8438,1.8443,1.8455,1.8461,1.8471,1.8475,1.8468,1.8495,1.8486,1.8497,1.8497,1.8502,1.8501,1.8531,1.8507,1.8507,1.8507,1.8507,0,1.8364,1.8377,1.8385,1.8395,1.841,1.8414,1.8429,1.8434,1.8443,1.8454,1.8455,1.8465,1.847,1.8481,1.8485,1.8501,1.8504,1.8506,1.8507,1.8506,1.8506,1.851,1.8508,1.8508,1.8508,1.8507,1.8507,0,1.8379,1.8385,1.8402,1.8414,1.8417,1.8428,1.8438,1.8447,1.8453,1.8467,1.847,1.8478,1.8492,1.8497,1.8513,1.8516,1.8535,1.8534,1.8531,1.8531,1.8542,1.8541,1.8575,1.858,1.8553,1.8553,1.8553,0,1.8391,1.8401,1.8414,1.8422,1.8428,1.844,1.8448,1.8453,1.8462,1.8475,1.8483,1.8497,1.8508,1.853,1.8538,1.8551,1.855,1.8562,1.8552,1.8551,1.8551,1.855,1.8551,1.8563,1.8563,1.8563,1.8564,0,1.8411,1.8414,1.8425,1.8439,1.8448,1.8459,1.8469,1.8475,1.8482,1.8492,1.8506,1.8515,1.8533,1.8547,1.8561,1.8567,1.8567,1.8567,1.857,1.8569,1.8567,1.8568,1.8536,1.8566,1.8566,1.8565,1.8565,1.8565,1.8424,1.8434,1.8445,1.8459,1.8467,1.8477,1.8488,1.8495,1.8507,1.8522,1.8524,1.854,1.8551,1.857,1.8577,1.859,1.8587,1.8591,1.8592,1.8593,1.8594,1.8566,1.8592,1.8592,1.8592,1.8592,1.8592,0,1.8444,1.8452,1.8465,1.848,1.8491,1.8491,1.8502,1.8512,1.8525,1.8536,1.8548,1.8565,1.8579,1.8588,1.8603,1.8611,1.8612,1.8615,1.8614,1.8616,1.8596,1.8591,1.8614,1.8614,1.8614,1.8614,1.8614,1.8614,1.8456,1.8473,1.8477,1.8499,1.8507,1.8522,1.8529,1.8539,1.8548,1.8567,1.8579,1.8585,1.8596,1.8612,1.8625,1.8627,1.8633,1.8636,1.8638,1.8619,1.8617,1.8615,1.8611,1.8637,1.8637,1.8657,1.8657,1.8657]},{"header":{"parameterUnit":"m.s-1","parameterCategory":1,"la1":30.2991,"la2":30.254,"lo1":-89.0895,"lo2":-89.0444,"dy":0.0017,"dx":0.0017,"nx":28,"ny":28,"refTime":"2025-12-30T03:00:00:Z","depth":0,"parameterNumber":3,"parameterNumberName":"V-component_of_WINDS"},"data":[0,0,0,0,0,0,0,0,0,0,0,0,0,0,0,0,0,0,0,0,0,0,0,0,0,0,0,0,0,0,0,0,0,0,0,0,0,0,0,0,0,0,0,0,0,0,0,0,0,0,0,0,0,0,0,0,0,0,-7.7513,-7.7515,0,-7.7638,-7.764,-7.7641,-7.7602,-7.76,-7.7597,-7.7594,-7.7716,-7.7721,-7.7727,0,0,0,0,0,0,0,0,0,0,0,0,0,-7.7236,-7.7242,-7.7513,-7.7515,-7.7517,-7.7638,-7.764,-7.7641,-7.7603,-7.7599,-7.7596,-7.7593,-7.7714,-7.7721,-7.7727,0,0,0,0,0,0,0,0,0,0,0,0,0,-7.7358,-7.7243,-7.7513,-7.7512,-7.7513,-7.7638,-7.764,-7.7642,-7.7603,-7.7599,-7.7595,-7.7592,-7.7712,-7.772,-7.7728,-7.786,0,0,-7.7754,-7.7758,0,0,0,0,0,0,0,0,-7.7352,-7.7369,-7.7511,-7.7512,-7.7514,-7.7601,-7.7587,-7.7715,-7.7604,-7.7569,-7.7594,-7.759,-7.768,-7.7691,-7.7723,-7.7865,-7.787,-7.7755,-7.776,-7.7764,-7.7766,0,0,0,0,0,0,0,-7.7343,-7.7363,-7.7562,-7.7513,-7.7515,-7.7504,-7.7517,-7.7611,-7.7645,-7.7572,-7.7569,-7.7585,-7.768,-7.7715,-7.7725,-7.7872,-7.7755,-7.7762,-7.7768,-7.7771,-7.813,-7.8134,0,0,0,0,0,0,-7.7334,-7.7356,-7.7559,-7.7566,-7.7422,-7.7512,-7.7526,-7.7577,-7.7644,-7.765,-7.7588,-7.7583,-7.7702,-7.7716,-7.773,-7.7889,-7.7764,-7.7772,-7.7777,-7.8125,-7.8131,-7.8136,0,0,0,0,0,0,-7.7329,-7.7353,-7.7553,-7.7461,-7.7485,-7.7521,-7.7578,-7.7581,-7.7616,-7.7656,-7.7662,-7.7617,-7.77,-7.7718,-7.7828,-7.7892,-7.7776,-7.7783,-7.812,-7.8127,-7.8133,-7.8208,0,0,0,0,0,0,-7.7321,-7.7351,-7.7402,-7.7462,-7.7491,-7.7652,-7.7582,-7.7587,-7.7631,-7.7625,-7.7685,-7.7691,-7.7698,-7.7816,-7.7837,-7.7902,-7.779,-7.8115,-7.8123,-7.8131,-7.82,-7.8216,-7.823,0,0,0,0,0,-7.7311,-7.7416,-7.7405,-7.743,-7.7556,-7.7656,-7.7672,-7.7679,-7.7637,-7.7688,-7.7714,-7.7689,-7.7882,-7.7828,-7.7851,-7.792,-7.8111,-7.8121,-7.813,-7.8193,-7.8213,-7.823,0,0,0,0,0,0,-7.736,-7.7424,-7.7412,-7.754,-7.7594,-7.7649,-7.7714,-7.77,-7.7764,-7.7755,-7.776,-7.7774,-7.7888,-7.7914,-7.7852,-7.8051,-7.799,-7.8005,-7.8029,-7.8049,-7.8064,-7.8055,-7.7797,0,0,0,0,0,-7.7386,-7.7464,-7.7515,-7.7623,-7.7651,-7.7678,-7.7722,-7.7723,-7.7777,-7.7799,-7.7833,-7.7884,-7.7957,-7.8004,-7.8072,-7.8203,-7.8216,-7.8262,-7.8277,-7.829,-7.8303,-7.8375,-7.8396,-7.8168,-7.8168,-7.8168,0,0,-7.744,-7.7485,-7.7533,-7.7634,-7.7675,-7.7755,-7.7697,-7.7782,-7.7841,-7.7811,-7.7919,-7.7946,-7.8003,-7.8125,-7.8181,-7.8151,-7.8369,-7.8302,-7.8312,-7.8318,-7.8387,-7.8409,-7.8428,-7.8175,-7.8174,-7.8173,0,0,-7.7579,-7.7621,-7.7717,-7.776,-7.7824,-7.7842,-7.7865,-7.7924,-7.7942,-7.805,-7.803,-7.8098,-7.8223,-7.8265,-7.8303,-7.8461,-7.8441,-7.8483,-7.8563,-7.8633,-7.8651,-7.8667,-7.8724,-7.8744,-7.8496,-7.8496,-7.8496,0,-7.7638,-7.7758,-7.7767,-7.7856,-7.7901,-7.788,-7.7977,-7.8017,-7.81,-7.8131,-7.8097,-7.8254,-7.8291,-7.8424,-7.8463,-7.8494,-7.852,-7.8476,-7.8648,-7.8664,-7.8679,-7.8734,-7.8755,-7.8501,-7.85,-7.85,-7.8499,0,-7.7827,-7.7911,-7.7981,-7.8064,-7.8117,-7.8209,-7.823,-7.8283,-7.828,-7.8301,-7.8412,-7.8457,-7.8535,-7.8566,-7.8563,-7.8699,-7.8679,-7.8647,-7.8585,-7.8706,-7.8757,-7.8778,-7.8508,-7.8506,-7.8505,-7.8503,0,0,-7.7999,-7.8089,-7.8114,-7.8153,-7.8223,-7.8287,-7.8378,-7.8457,-7.8502,-7.856,-7.8636,-7.8743,-7.8715,-7.8758,-7.8759,-7.8821,-7.8945,-7.8782,-7.8783,-7.8811,-7.9098,-7.9122,-7.9146,-7.8932,-7.8936,-7.8939,-7.9093,0,-7.8145,-7.8308,-7.832,-7.8466,-7.8544,-7.8527,-7.8606,-7.8657,-7.8679,-7.8747,-7.8771,-7.8847,-7.8804,-7.883,-7.889,-7.8917,-7.9002,-7.8906,-7.9002,-7.9005,-7.8989,-7.9172,-7.9198,-7.9341,-7.9113,-7.9116,-7.9119,0,-7.8337,-7.8404,-7.8559,-7.8621,-7.8654,-7.8725,-7.88,-7.8865,-7.8923,-7.8934,-7.8984,-7.8978,-7.907,-7.9006,-7.9133,-7.9068,-7.9107,-7.9127,-7.9132,-7.9141,-7.9069,-7.9187,-7.9386,-7.9408,-7.915,-7.9148,-7.9146,0,-7.8448,-7.8577,-7.8687,-7.872,-7.8794,-7.8845,-7.8878,-7.8932,-7.8979,-7.9043,-7.9074,-7.9147,-7.9187,-7.9243,-7.9256,-7.9209,-7.9384,-7.932,-7.9396,-7.9395,-7.9433,-7.943,-7.9642,-7.9458,-7.9458,-7.9457,-7.9457,0,-7.861,-7.8706,-7.8739,-7.8806,-7.8913,-7.8925,-7.903,-7.9059,-7.9107,-7.9179,-7.9167,-7.9235,-7.9248,-7.9318,-7.9328,-7.9433,-7.945,-7.9462,-7.9463,-7.9463,-7.9462,-7.9489,-7.948,-7.9463,-7.9462,-7.9461,-7.946,0,-7.8752,-7.8778,-7.8897,-7.8959,-7.8976,-7.9053,-7.9104,-7.9169,-7.9191,-7.9282,-7.9304,-7.9338,-7.942,-7.9439,-7.9535,-7.9542,-7.9666,-7.9657,-7.9647,-7.9647,-7.9721,-7.9714,-7.9958,-7.9991,-7.9785,-7.9787,-7.9788,0,-7.8854,-7.8928,-7.8998,-7.9047,-7.9084,-7.9162,-7.9211,-7.9226,-7.9277,-7.935,-7.9405,-7.9487,-7.9552,-7.9684,-7.9715,-7.9789,-7.9783,-7.9863,-7.9794,-7.9792,-7.9785,-7.9781,-7.9788,-7.9876,-7.9879,-7.988,-7.9882,0,-7.9032,-7.9042,-7.9115,-7.9194,-7.9254,-7.9315,-7.9374,-7.9414,-7.9436,-7.9494,-7.958,-7.9631,-7.9732,-7.9812,-7.9887,-7.9918,-7.9904,-7.9904,-7.9925,-7.9926,-7.9917,-7.9924,-7.9684,-7.9898,-7.9896,-7.9895,-7.9894,-7.9894,-7.9157,-7.9223,-7.9284,-7.9366,-7.9413,-7.9468,-7.9533,-7.9564,-7.9636,-7.9721,-7.9725,-7.9818,-7.9874,-7.9973,-8.001,-8.0081,-8.0056,-8.0087,-8.0095,-8.0102,-8.011,-7.9906,-8.0095,-8.0094,-8.0094,-8.0094,-8.0093,0,-7.9336,-7.9375,-7.945,-7.9535,-7.96,-7.9583,-7.9648,-7.9702,-7.9785,-7.984,-7.9906,-8.0005,-8.0083,-8.0122,-8.02,-8.025,-8.0245,-8.027,-8.0266,-8.0274,-8.0127,-8.0101,-8.0273,-8.0273,-8.0273,-8.0272,-8.0272,-8.0272,-7.9436,-7.9547,-7.9564,-7.9698,-7.9736,-7.9829,-7.9868,-7.9919,-7.9963,-8.0075,-8.0141,-8.0167,-8.0215,-8.0297,-8.0368,-8.0377,-8.0406,-8.0435,-8.044,-8.0302,-8.0284,-8.0267,-8.0243,-8.0441,-8.0441,-8.0582,-8.0583,-8.0584]}]]